カタログに戻る

Lobachevsky

運用中アマチュア無線SSO
NORAD 67284·PAYLOAD·🇷🇺 Russia

打ち上げ Dec 28, 2025 から Vostochny Cosmodrome

Loading…

次のパス (今後24時間)

TLE

最新Source: Space-Track

元期: Sep 14, 2026, 10:28 UTC

1 67284U 25313AN  26257.43675007  .00003967  00000-0  16826-3 0  9996
2 67284  97.3849 330.7363 0011648  52.1276 308.1012 15.23628885 39541

AllMySatでLobachevskyをリアルタイム追跡

Download on the App Store